Home   Weather   Mohave Valley   Past weeks
Flag for USA

Past Weather in Mohave Valley, Arizona, USA — Yesterday and Last 2 Weeks

Now
92 °F

Sunny.


Feels Like: 88 °F
Forecast: 103 / 68 °F
Wind: 5 mph from North

Location: Needles Airport

Current Time: Apr 18, 2019 at 5:36:53 pm

Latest Report: Apr 18, 2019 at 4:56 pm


Visibility: 10 mi

Pressure: 29.90 "Hg

Humidity: 10%

Dew Point: 29 °F

Location of Mohave ValleyLocation

Past Weather in Mohave Valley — Graph

°F

Mohave Valley Temperature Yesterday

Maximum temperature yesterday: 83 °F (at 3:56 pm)
Minimum temperature yesterday: 54 °F (at 4:56 am)
Average temperature yesterday: 70 °F

High & Low Weather Summary for the Past Weeks

 TemperatureHumidityPressure
High95 °F (Apr 8, 2:56 pm)90% (Apr 16, 7:56 pm)30.09 "Hg (Apr 16, 7:56 pm)
Low54 °F (Apr 17, 4:56 am)8% (Apr 8, 6:56 pm)29.55 "Hg (Apr 9, 4:56 pm)
Average73 °F24%29.83 "Hg
* Reported Apr 3 3:56 pm — Apr 18 3:56 pm, Mohave Valley. Weather by CustomWeather, © 2019

Note: Actual official high and low records may vary slightly from our data, if they occured in-between our weather recording intervals... More about our weather records

Advertising

Mohave Valley Weather History for the Previous 24 Hours

Scroll right to see more
 ConditionsComfort  
Time TempWeatherWind HumidityBarometerVisibility
3:56 pm
Thu, Apr 18
92 °FSunny.5 mph11%29.92 "Hg10 mi
2:56 pm92 °FSunny.9 mph12%29.95 "Hg10 mi
1:56 pm91 °FSunny.13 mph13%29.98 "Hg10 mi
12:56 pm89 °FSunny.16 mph14%30.01 "Hg10 mi
11:56 am87 °FSunny.16 mph15%30.04 "Hg10 mi
10:56 am85 °FSunny.22 mph17%30.05 "Hg10 mi
9:56 am81 °FSunny.20 mph20%30.06 "Hg10 mi
8:56 am77 °FSunny.17 mph23%30.06 "Hg10 mi
7:56 am74 °FSunny.9 mph25%30.06 "Hg10 mi
6:56 am70 °FSunny.12 mph29%30.04 "Hg10 mi
4:56 am67 °FClear.8 mph32%30.00 "Hg10 mi
3:56 am68 °FClear.7 mph31%29.99 "Hg10 mi
2:56 am69 °FClear.9 mph30%29.98 "Hg10 mi
1:56 am67 °FClear.7 mph35%29.99 "Hg10 mi
12:56 am67 °FClear.10 mph32%29.99 "Hg10 mi
11:56 pm
Wed, Apr 17
70 °FClear.9 mph29%29.98 "Hg10 mi
10:56 pm71 °FClear.9 mph29%29.97 "Hg10 mi
9:56 pm72 °FClear.8 mph27%29.98 "Hg10 mi
8:56 pm74 °FClear.8 mph24%29.97 "Hg10 mi
7:56 pm78 °FClear.10 mph18%29.95 "Hg10 mi
6:56 pm80 °FSunny.12 mph16%29.93 "Hg10 mi
5:56 pm82 °FSunny.17 mph14%29.94 "Hg10 mi
Weather by CustomWeather, © 2019

See weather overview